Epoch 2019 June 6.0 TT = JDT 2458640.5
T 2019 June 18.22448 TT Rudenko
q 2.3713239 (2000.0) P Q
n 0.07205302 Peri. 68.35861 -0.60626915 -0.55763133
a 5.7196299 Node 72.85839 +0.30627189 -0.82169601
e 0.5854061 Incl. 36.39536 +0.73391774 -0.11774110
P 13.7
From 224 observations 2019 June 4-2020 June 16, mean residual 0".5.